#timestamp,LO_Frequency,Hit,StdDev 
1456704015.2,286047003.0,N
1456704035.0,286047001.9,N
1456704035.9,286047001.9,N
1456704055.8,286047005.9,N
1456704075.6,286047007.1,N
1456704095.4,286047003.1,N
1456704115.2,286047005.6,N
1456704135.1,286047004.0,N
1456704136.0,286047004.0,N
1456704155.8,286047003.5,N
1456704175.6,286047002.6,N
1456704195.5,286047003.0,N
1456704215.3,286047007.2,Y
1456704235.1,286047003.6,P
1456704255.9,286047004.2,P
1456704275.7,286047001.3,P
1456704295.5,286047002.1,N
1456704315.4,286047002.4,N
1456704335.2,286046998.1,N
1456704355.0,286046998.3,N
1456704355.9,286046998.3,N
1456704375.8,286046995.0,N
1456704395.6,286046993.3,N
1456704415.4,286046991.9,N
1456704435.3,286046994.7,N
1456704455.1,286046993.7,N
1456704456.0,286046993.7,N
1456704475.8,286046997.5,N
1456704495.7,286046994.4,N
1456704515.5,286046993.6,N
1456704535.3,286046996.4,N
1456704555.1,286046994.8,N
1456704575.9,286046991.0,N
1456704595.7,286046989.5,N
1456704615.5,286046988.9,N
1456704635.4,286046989.2,N
1456704655.2,286046989.8,N
1456704675.0,286046989.5,N
1456704675.9,286046989.5,N
1456704695.8,286046989.0,N
1456704715.6,286046989.7,N
1456704735.4,286046990.0,N
1456704755.3,286046990.3,N
1456704775.1,286046992.3,N
1456704776.0,286046992.3,N
1456704795.8,286046992.6,N
1456704815.7,286046991.1,N
1456704835.5,286046989.9,N
1456704855.3,286046987.4,Y
1456704875.2,286046992.2,P
1456704895.9,286046993.6,P
1456704915.7,286046993.9,P
1456704935.6,286046991.9,Y
1456704955.4,286046998.5,P
1456704975.2,286046997.3,N
1456704995.1,286046995.2,N
1456704996.0,286046995.2,N
1456705015.8,286046999.1,N
1456705035.6,286046996.7,N
1456705055.5,286046995.3,N
1456705075.3,286046996.5,N
1456705095.1,286046994.9,N
1456705115.8,286046997.8,N
1456705135.7,286046994.9,Y
1456705155.5,286046999.9,P
1456705175.3,286046999.9,N
1456705195.2,286047001.5,N
1456705215.0,286047002.7,N
1456705215.9,286047002.7,N
1456705235.7,286047000.8,N
1456705255.6,286047002.7,N
1456705275.4,286047000.8,N
1456705295.2,286046999.3,N
1456705315.1,286046996.6,N
1456705316.0,286046996.6,N
1456705335.8,286046995.0,N
1456705355.6,286046995.4,N
1456705375.5,286046997.8,N
1456705395.3,286046995.4,N
1456705415.1,286046996.8,N
1456705435.9,286046997.5,N
1456705455.7,286046996.4,N
1456705475.5,286046995.1,N
1456705495.4,286046991.7,Y
1456705515.2,286046995.1,P
1456705535.0,286046993.5,P
1456705535.9,286046993.5,P
1456705555.8,286046993.5,Y
1456705575.6,286047000.7,P
1456705595.4,286047000.0,N
1456705615.3,286046998.4,N
1456705635.1,286046995.4,N
1456705636.0,286046995.4,N
1456705655.8,286046996.1,N
1456705675.6,286046996.3,N
1456705695.5,286046996.4,N
1456705715.3,286046997.3,N
1456705735.1,286046996.8,N
1456705755.9,286046997.9,N
1456705775.7,286046997.5,N
1456705795.5,286047000.8,N
1456705815.4,286047002.5,N
1456705835.2,286047001.2,N
1456705855.0,286046998.9,N
1456705855.9,286046998.9,N
1456705875.8,286047002.7,N
1456705895.6,286047001.4,N
1456705915.4,286047003.5,N
1456705935.3,286047003.6,N
1456705955.1,286047005.3,N
1456705956.0,286047005.3,N
1456705975.8,286047007.2,N
1456705995.6,286047006.3,N
1456706015.5,286047010.2,N
1456706035.3,286047011.9,N
1456706055.1,286047011.8,N
1456706075.9,286047012.0,N
1456706095.7,286047009.9,N
1456706115.5,286047013.1,N
1456706135.4,286047014.5,N
1456706155.2,286047013.5,N
1456706175.0,286047016.8,N
1456706175.9,286047016.8,N
1456706195.8,286047012.6,N
1456706215.6,286047013.4,N
1456706235.4,286047012.2,N
1456706255.3,286047010.0,N
1456706275.1,286047010.1,N
1456706276.0,286047010.1,N
1456706295.8,286047011.0,N
1456706315.7,286047015.6,N
1456706335.5,286047014.6,N
1456706355.3,286047018.6,Y
1456706375.2,286047007.9,P
1456706395.9,286047011.8,P
1456706415.7,286047013.4,P
1456706435.6,286047012.8,Y
1456706455.4,286047002.3,P
1456706475.2,286046998.4,N
1456706495.1,286046999.9,N
1456706496.0,286046999.9,N
1456706515.8,286047002.4,N
1456706535.6,286046999.8,N
1456706555.5,286046999.5,N
1456706575.3,286046996.7,N
1456706595.1,286046999.4,N
1456706615.8,286046997.1,N
1456706635.7,286046996.5,N
1456706655.5,286046998.6,N
1456706675.3,286046999.1,N
1456706695.2,286046999.4,N
1456706715.9,286046998.6,N
1456706735.7,286046999.0,N
1456706755.6,286047000.9,N
1456706775.4,286047000.9,N
1456706795.2,286047000.5,N
1456706815.1,286047002.3,N
1456706816.0,286047002.3,N
1456706835.8,286046998.4,N
1456706855.6,286047000.2,N
1456706875.5,286047000.4,N
1456706895.3,286047002.5,N
1456706915.1,286046998.9,N
1456706935.9,286046998.7,N
1456706955.7,286046997.7,N
1456706975.5,286046999.2,N
1456706995.3,286046995.8,N
1456707015.2,286046998.0,N
1456707035.0,286046994.9,Y
1456707035.9,286046994.9,P
1456707055.8,286046996.8,N
1456707075.6,286046996.1,N
1456707095.4,286046993.8,Y
1456707115.3,286046996.3,P
1456707135.1,286046997.2,P
1456707136.0,286046997.2,P
1456707155.8,286046995.1,Y
1456707175.7,286046999.3,P
1456707195.5,286047000.9,N
1456707215.3,286046997.1,N
1456707235.2,286046998.7,N
1456707255.9,286046998.0,N
1456707275.7,286046996.4,N
1456707295.6,286046995.1,Y
1456707315.4,286046998.9,P
1456707335.2,286046997.4,P
1456707355.0,286046997.3,P
1456707356.0,286046997.3,Y
1456707375.8,286046998.4,P
1456707395.6,286046998.7,P
1456707415.5,286046996.1,P
1456707435.3,286046993.7,Y
1456707455.1,286046997.8,P
1456707475.9,286046997.6,P
1456707495.7,286046996.7,P
1456707515.5,286047001.2,N
1456707535.3,286046999.4,N
1456707555.2,286046999.3,N
1456707575.0,286046997.6,N
1456707575.9,286046997.6,N
1456707595.8,286046994.9,Y
